Hourly Data Report for July 08, 2021

CARIBOU POINT (AUT)
NOVA SCOTIA
Current Station Operator: ECCC - MSC

45°46'00.000" N
62°41'00.000" W
2.40 m
8200774
71415
WBK

Download Data

Hourly Data (July 2021)
Hourly Data Report for July 8, 2021
TIME
LST
Temp Definition
°C
Dew Point Definition
°C
Rel Hum Definition
%
Precip. Amount Definition
mm

Wind Dir Definition
10's deg

Wind Spd Definition
km/h
Visibility Definition
km
Stn Press Definition
kPa
Hmdx Definition


Wind Chill Definition


Weather Definition


00:00 14.9 11.4 80 0.0 28 9   101.44     LegendNANA
01:00 14.5 10.8 79 0.0 26 7   101.47     LegendNANA
02:00 16.5 12.7 78 0.0 31 29   101.48     LegendNANA
03:00 16.4 11.8 74 0.0 31 27   101.58     LegendNANA
04:00 16.3 11.6 74 0.0 30 25   101.65     LegendNANA
05:00 14.5 11.9 84 0.0 27 13   101.73     LegendNANA
06:00 15.3 11.8 79 0.0 28 17   101.88     LegendNANA
07:00 16.2 11.6 74 0.0 30 18   101.94     LegendNANA
08:00 16.6 12.2 75 0.0 30 20   102.02     LegendNANA
09:00 16.9 12.3 74 0.0 30 18   102.09     LegendNANA
10:00 17.3 12.7 74 0.0 30 15   102.14     LegendNANA
11:00 18.1 13.3 74 0.0 29 18   102.19     LegendNANA
12:00 18.8 13.7 72 0.0 29 18   102.22     LegendNANA
13:00 18.7 12.8 69 0.0 30 18   102.25     LegendNANA
14:00 18.8 11.8 64 0.0 33 10   102.26     LegendNANA
15:00 17.8 12.9 73 0.0 8 14   102.25     LegendNANA
16:00 17.7 13.4 76 0.0 6 14   102.35     LegendNANA
17:00 16.7 13.0 79 0.0 7 18   102.35     LegendNANA
18:00 16.0 12.5 80 0.0 9 24   102.41     LegendNANA
19:00 15.7 12.4 81 0.0 9 28   102.42     LegendNANA
20:00 15.3 11.7 79 0.0 9 28   102.41     LegendNANA
21:00 15.9 13.0 83 0.0 11 25   102.46     LegendNANA
22:00 15.5 11.5 77 0.0 12 23   102.43     LegendNANA
23:00 15.7 11.6 77 0.0 12 21   102.41     LegendNANA

Notes on Data Quality.

Legend

  • E = Estimated
  • M = Missing
  • NA = Not Available*
  • [empty] = Indicates an unobserved value
Date modified: